Jaffrey, NH

5:48 PM EDT on May 28, 2017 (GMT -0400)
Jaffrey Airport-Silver Ranch

Weather History for KAFN - April, 2014

Change the Weather History Date:

Thursday, April 17, 2014

  Actual Average Record
Temperature  
Mean Temperature 32 °F -  
Max Temperature 43 °F 54 °F 89 °F (2002)
Min Temperature 21 °F 31 °F 21 °F (2014)
Degree Days  
Heating Degree Days 34    
Moisture  
Dew Point 17 °F    
Average Humidity 59    
Maximum Humidity 85    
Minimum Humidity 36    
Precipitation  
Precipitation 0.00 in - - ()
Sea Level Pressure  
Sea Level Pressure 30.74 in    
Wind  
Wind Speed 2 mph (North)    
Max Wind Speed 9 mph    
Max Gust Speed -    
Visibility 10 miles    
Events      
Averages and records for this station are not official NWS values.
T = Trace of Precipitation, MM = Missing Value Source: NWS Daily Summary

Daily Weather History Graph

Daily Weather History Graph

Search for Another Location

Airport or City:

Trip Planner

Search our weather history database for the weather conditions in past years. The results will help you decide how hot, cold, wet, or windy it might be!

Date:

Astronomy

Apr. 17, 2014 Rise Set
Actual Time 6:03 AM EDT 7:32 PM EDT
Civil Twilight 5:33 AM EDT 8:02 PM EDT
Nautical Twilight 4:58 AM EDT 8:38 PM EDT
Astronomical Twilight 4:20 AM EDT 9:16 PM EDT
Moon 10:18 PM EDT (4/17) 7:30 AM EDT (4/17)
Length of Visible Light 14h 28m
Length of Day
13h 29m
Waning Gibbous, 94% of the Moon is Illuminated
Apr 17
Waning Gibbous
Apr 22
Last Quarter
Apr 29
New
May 6
First Quarter
May 14
Full

Hourly Weather History & Observations

Time (EDT) Temp. Windchill Dew Point Humidity Pressure Visibility Wind Dir Wind Speed Gust Speed Precip Events Conditions
12:52 AM 26.1 °F 21.9 °F 17.1 °F 69% 30.65 in 10.0 mi North 3.5 mph - N/A   Clear
1:52 AM 24.1 °F - 17.1 °F 75% 30.66 in 10.0 mi Calm Calm - N/A   Clear
2:52 AM 23.0 °F - 17.1 °F 78% 30.68 in 10.0 mi Calm Calm - N/A   Clear
3:52 AM 21.9 °F - 17.1 °F 82% 30.71 in 10.0 mi Calm Calm - N/A   Clear
4:52 AM 21.0 °F - 17.1 °F 85% 30.73 in 10.0 mi Calm Calm - N/A   Clear
5:52 AM 21.0 °F - 17.1 °F 85% 30.75 in 10.0 mi Calm Calm - N/A   Clear
6:52 AM 23.0 °F - 14.0 °F 68% 30.78 in 10.0 mi Calm Calm - N/A   Clear
7:52 AM 27.0 °F 23.0 °F 10.9 °F 51% 30.80 in 10.0 mi Variable 3.5 mph - N/A   Clear
8:52 AM 28.9 °F 23.9 °F 12.9 °F 51% 30.81 in 10.0 mi Variable 4.6 mph - N/A   Clear
9:52 AM 30.9 °F 22.8 °F 12.0 °F 46% 30.82 in 10.0 mi NNE 9.2 mph - N/A   Clear
10:52 AM 34.0 °F 28.0 °F 12.0 °F 40% 30.82 in 10.0 mi Variable 6.9 mph - N/A   Clear
11:52 AM 37.0 °F 32.4 °F 14.0 °F 39% 30.80 in 10.0 mi Variable 5.8 mph - N/A   Clear
1:52 PM 39.9 °F 36.7 °F 17.1 °F 40% 30.76 in 10.0 mi Variable 4.6 mph - N/A   Clear
2:52 PM 41.0 °F - 16.0 °F 36% 30.74 in 10.0 mi Calm Calm - N/A   Clear
3:52 PM 42.1 °F 39.2 °F 17.1 °F 37% 30.74 in 10.0 mi Variable 4.6 mph - N/A   Clear
4:52 PM 41.0 °F 36.4 °F 18.0 °F 40% 30.73 in 10.0 mi Variable 6.9 mph - N/A   Clear
5:52 PM 39.0 °F 35.7 °F 17.1 °F 41% 30.74 in 10.0 mi Variable 4.6 mph - N/A   Clear
6:52 PM 37.0 °F 34.5 °F 19.0 °F 48% 30.74 in 10.0 mi Variable 3.5 mph - N/A   Clear
7:52 PM 33.1 °F 30.0 °F 19.0 °F 56% 30.74 in 10.0 mi Variable 3.5 mph - N/A   Clear
8:52 PM 30.9 °F - 21.0 °F 67% 30.75 in 10.0 mi Calm Calm - N/A   Clear
9:52 PM 30.0 °F - 21.0 °F 69% 30.73 in 10.0 mi Calm Calm - N/A   Clear
10:52 PM 28.9 °F - 21.0 °F 72% 30.71 in 10.0 mi Calm Calm - N/A   Clear
11:52 PM 28.0 °F - 21.0 °F 75% 30.68 in 10.0 mi Calm Calm - N/A   Clear